Location: Giffoni Valle Piana
(40.7333°N, 14.9333°E)
Time: 01:17:42
(UTC+00:00)

Daily predictions for brighter satellites

Satellite Brightness Start Highest point End
(mag) Time Altitude Azimuth Time Altitude Azimuth Time Altitude Azimuth
CZ-4C R/B 4.3 00:05:33 10° ESE 00:06:13 11° ESE 00:07:19 10° E
GEOS 3 Rocket 3.5 00:07:38 75° SSE 00:08:07 87° SW 00:13:25 10° NW
COSMOS 2455 3.2 00:11:39 47° W 00:12:56 56° WNW 00:18:53 10° NNE
Cosmos 2058 Rocket 3.3 00:09:54 10° N 00:13:46 66° NNW 00:13:46 66° NNW
Cosmos 2084 4.2 00:15:46 46° E 00:15:46 46° E 00:19:29 10° NE
Cosmos 2228 4.4 00:12:50 10° NNW 00:15:32 29° WNW 00:15:32 29° WNW
SL-14 R/B 4.1 00:18:39 46° NNW 00:18:39 46° NNW 00:21:34 10° N
SJ 16-02 3.9 00:15:06 10° NNE 00:18:05 17° ENE 00:21:04 10° ESE
IRAS Rocket 4.1 00:17:53 67° SW 00:18:25 72° WSW 00:24:00 10° NNW
Okean 1-7 Rocket 4.1 00:22:03 50° WNW 00:22:03 50° WNW 00:26:02 10° N
Cosmos 921 Rocket 3.1 00:23:34 72° N 00:23:34 72° N 00:27:28 10° NNE
Cosmos 1300 3.5 00:22:14 10° N 00:25:04 48° NNW 00:25:04 48° NNW
Meteor 2-16 Rocket 4.4 00:27:43 57° SSW 00:29:01 77° W 00:35:11 10° N
Cosmos 1626 Rocket 3.5 00:29:36 76° E 00:29:36 76° E 00:33:50 10° N
Cosmos 1626 3.5 00:34:31 31° NW 00:34:31 31° NW 00:37:02 10° N
Cosmos 2219 4.2 00:29:40 10° NNW 00:35:06 45° ENE 00:40:26 10° SE
FALCON 9 R/B 3.5 00:38:25 36° WSW 00:41:41 63° S 01:04:45 10° E
Nadezhda 1 Rocket 3.9 00:37:35 10° N 00:43:46 83° W 00:45:52 45° S
MOZ.5/SAFIR/RUBIN 5/SL-8 3.6 00:44:16 71° SW 00:44:32 74° WSW 00:49:11 10° NNW
UNK 3.7 00:44:01 60° SSE 00:44:49 82° ENE 00:49:27 10° N
Cosmos 220 Rocket 4.0 00:46:16 65° W 00:46:25 66° WNW 00:50:49 10° NNE
STARLINK-1371 4.4 00:48:05 37° E 00:48:05 37° E 00:50:30 10° ENE
STARLINK-1341 4.2 00:50:03 39° E 00:50:03 39° E 00:52:34 10° ENE
STARLINK-1355 4.5 00:50:51 31° ENE 00:50:51 31° ENE 00:52:43 10° ENE
STARLINK-1321 4.5 00:51:10 31° ENE 00:51:10 31° ENE 00:53:03 10° ENE
STARLINK-1358 4.5 00:51:31 32° ENE 00:51:31 32° ENE 00:53:24 10° ENE
STARLINK-1332 4.4 00:51:49 32° ENE 00:51:49 32° ENE 00:53:44 10° ENE
Cosmos 2297 Rocket 3.1 00:45:19 10° NNW 00:50:47 48° ENE 00:56:12 10° SE
STARLINK-1348 4.4 00:52:10 33° ENE 00:52:10 33° ENE 00:54:05 10° ENE
STARLINK-1374 4.1 00:51:59 42° E 00:51:59 42° E 00:54:36 10° ENE
STARLINK-1330 4.4 00:52:29 33° ENE 00:52:29 33° ENE 00:54:24 10° ENE
SL-4 R/B 3.6 00:49:12 24° WNW 00:51:27 38° NNW 00:55:52 10° NE
STARLINK-1363 4.4 00:52:48 33° ENE 00:52:48 33° ENE 00:54:44 10° ENE
STARLINK-1337 4.4 00:53:07 34° ENE 00:53:07 34° ENE 00:55:05 10° ENE
AQUA 3.9 00:47:28 10° NNE 00:52:13 68° ESE 00:53:18 51° SSE
STARLINK-1342 4.3 00:53:27 34° ENE 00:53:27 34° ENE 00:55:25 10° ENE
STARLINK-1364 4.3 00:53:47 34° ENE 00:53:47 34° ENE 00:55:46 10° ENE
STARLINK-1376 4.3 00:54:07 35° ENE 00:54:07 35° ENE 00:56:07 10° ENE
STARLINK-1339 4.0 00:54:00 45° E 00:54:00 45° E 00:56:42 10° ENE
STARLINK-1360 4.3 00:54:22 35° ENE 00:54:22 35° ENE 00:56:24 10° ENE
Cosmos 1812 Rocket 3.6 00:49:05 10° N 00:53:34 76° E 00:54:30 54° SSE
STARLINK-1361 4.3 00:54:48 36° ENE 00:54:48 36° ENE 00:56:49 10° ENE
CZ-4B R/B 3.5 00:48:36 10° NNE 00:53:47 77° ESE 00:55:16 48° S
STARLINK-1367 4.2 00:55:02 37° ENE 00:55:02 37° ENE 00:57:07 10° ENE
STARLINK-1366 4.2 00:55:25 36° ENE 00:55:25 36° ENE 00:57:28 10° NE
STARLINK-1377 3.9 00:56:00 48° E 00:56:00 48° E 00:58:48 10° ENE
STARLINK-1353 3.8 00:57:56 51° E 00:57:56 51° E 01:00:45 10° ENE
ATLAS CENTAUR R/B 3.3 00:56:56 19° WNW 00:58:05 21° NW 01:01:21 10° N
SL-16 R/B 2.4 00:56:01 39° S 00:58:27 74° WSW 01:04:38 10° NNW
STARLINK-1375 3.6 00:59:43 55° E 00:59:43 55° E 01:02:38 10° NE
CBERS-1 4.4 00:55:07 10° NNE 01:00:11 57° E 01:02:06 35° SSE
STARLINK-1350 3.5 01:01:59 60° E 01:01:59 60° E 01:05:00 10° NE
FALCON 9 DEB 3.8 01:02:08 47° NW 01:02:09 47° NNW 01:05:30 10° NE
Cosmos 1602 Rocket 3.6 01:01:58 57° WSW 01:02:17 59° W 01:06:34 10° N
BREEZE-M R/B 3.3 01:01:07 38° W 01:02:23 53° NNW 01:05:23 10° NE
Cosmos 1825 Rocket 4.2 01:01:14 36° SE 01:02:31 49° E 01:06:42 10° NNE
Timation 2 Rocket 4.0 00:56:32 10° NNW 01:02:40 56° WSW 01:04:30 41° SSW
STARLINK-1352 3.4 01:04:09 66° E 01:04:09 66° E 01:07:19 10° NE
Alouette 2 Rocket 4.4 00:58:33 10° N 01:04:39 59° ENE 01:07:10 24° SE
STARLINK-1368 3.2 01:06:14 72° E 01:06:14 72° E 01:09:29 10° NE
BREEZE-M DEB (TANK) 4.1 01:05:40 27° SSE 01:07:13 33° ESE 01:16:46 10° ENE
STARLINK-1369 3.2 01:08:12 76° E 01:08:12 76° E 01:11:31 10° NE
Cosmos 1455 2.5 01:04:46 10° N 01:08:30 60° E 01:09:23 45° SE
BREEZE-M DEB (TANK) 3.7 01:09:30 28° NE 01:09:30 28° NE 01:10:47 10° NE
ATLAS 3B R/B 2.9 01:03:33 10° NW 01:10:03 47° WSW 01:12:43 33° SSW
STARLINK-1372 3.1 01:10:25 84° E 01:10:25 84° E 01:13:51 10° NE
STARLINK-1378 3.0 01:12:32 90° W 01:12:32 90° W 01:16:05 10° NE
STARLINK-1329 3.0 01:12:59 88° WSW 01:13:01 89° NNW 01:16:34 10° NE
IRS-1D 3.6 01:07:40 10° NNE 01:13:02 76° ESE 01:15:16 36° S
BREEZE-M DEB (TANK) 4.0 01:12:39 12° NW 01:13:46 15° NNW 01:15:19 10° NNE
STARLINK-1365 3.0 01:13:46 83° WNW 01:13:51 84° NW 01:17:23 10° NE
CENTAUR R/B 4.1 01:07:13 10° WNW 01:13:51 26° WSW 01:14:47 26° WSW
GP-B 3.1 01:10:11 10° N 01:14:39 79° E 01:16:11 41° S
STARLINK-1379 3.0 01:14:39 84° W 01:14:44 86° NW 01:18:17 10° NE
STARLINK-1362 3.0 01:15:10 82° W 01:15:17 85° NW 01:18:50 10° NE
Meteor 2-1 Rocket 4.2 01:10:30 10° NNW 01:15:57 65° W 01:18:03 37° SSW
STARLINK-1373 3.0 01:17:22 76° W 01:17:34 81° NW 01:21:08 10° NE
Cosmos-2242 3.5 01:13:56 10° N 01:18:08 57° E 01:20:32 24° SSE
STARLINK-1390 3.1 01:19:27 70° W 01:19:44 78° NW 01:23:17 10° NE
SL-08 R/B 4.3 01:15:39 10° SE 01:20:07 44° ENE 01:24:33 10° N
RESURS DK-1 4.1 01:19:17 19° WNW 01:20:14 21° NW 01:23:23 10° N
Cosmos 2181 Rocket 4.1 01:18:30 10° N 01:24:57 80° E 01:30:28 15° S
Cosmos 1763 Rocket 3.4 01:23:45 36° SSW 01:25:52 85° ESE 01:30:59 10° NNE
Cosmos 1697 Rocket 3.0 01:23:12 28° S 01:26:06 61° ESE 01:31:42 10° NNE
Cosmos 2227 Rocket 2.3 01:20:44 10° NNW 01:26:26 80° ENE 01:32:06 10° SSE
IRS-P3 4.2 01:22:30 10° NNE 01:27:51 73° ESE 01:30:49 27° S
Cosmos 1703 3.2 01:26:47 47° S 01:27:53 89° W 01:31:51 10° N
CZ-2D R/B 2.8 01:23:32 10° N 01:28:24 39° WNW 01:30:15 29° WSW
ADEOS II 2.1 01:26:01 10° NNE 01:31:18 85° ESE 01:34:07 29° S
STARLINK-1228 2.9 01:34:26 10° WNW 01:37:45 62° SW 01:41:02 10° SE
Resurs 1-4 Rocket 3.1 01:33:27 10° N 01:38:05 32° WNW 01:40:11 24° WSW
STARLINK-1212 2.7 01:37:11 10° NW 01:40:18 89° SSW 01:43:24 10° SE
Cosmos 1758 Rocket 3.9 01:39:23 36° SW 01:40:41 48° W 01:44:55 10° N
STARLINK-1105 2.7 01:37:40 10° NW 01:40:46 88° SW 01:43:51 10° SE
STARLINK-1247 2.7 01:38:34 10° NW 01:41:42 86° SW 01:44:48 10° SE
STARLINK-1227 2.7 01:39:02 10° NW 01:42:08 85° SW 01:45:13 10° SE
H-2A R/B 3.5 01:38:55 10° SE 01:42:53 37° ENE 01:46:55 10° N
STARLINK-1226 2.7 01:39:53 10° NW 01:43:00 83° SW 01:46:06 10° SE
ARIANE 5 R/B 2.7 01:38:22 10° NNE 01:43:25 68° ESE 01:46:55 20° S
STARLINK-1215 2.7 01:40:49 10° NW 01:43:57 82° SW 01:47:03 10° SE
STARLINK-1217 2.7 01:42:36 10° NW 01:45:43 78° SW 01:48:49 10° SE
STARLINK-1229 2.7 01:43:31 10° NW 01:46:38 76° SW 01:49:45 10° SE
STARLINK-1270 2.7 01:44:23 10° NW 01:47:30 75° SW 01:50:36 10° SE
STARLINK-1189 2.7 01:46:13 10° NW 01:49:20 71° SW 01:52:25 10° SE
STARLINK-1188 2.7 01:47:06 10° NW 01:50:13 69° SW 01:53:19 10° SE
STARLINK-1235 2.9 01:47:51 10° WNW 01:50:51 49° SW 01:53:51 10° SSE
STARLINK-1271 4.5 01:46:57 10° NW 01:51:00 52° NE 01:55:03 10° ESE
STARLINK-1187 2.8 01:48:14 10° WNW 01:51:17 57° SW 01:54:20 10° SE
Cosmos 1656 4.2 01:48:20 25° WSW 01:51:20 46° WNW 01:56:47 10° NNE
Cosmos 1898 Rocket 3.5 01:46:13 10° NNW 01:51:32 68° WSW 01:56:46 10° S
STARLINK-1191 2.7 01:49:36 10° WNW 01:52:40 65° SW 01:55:44 10° SE
Lacrosse 4 Rocket 3.1 01:49:16 10° NNW 01:53:18 36° NE 01:57:11 10° SE
CZ-4C R/B 2.0 01:50:43 27° SW 01:53:28 85° NW 01:59:15 10° NNE
STARLINK-1221 2.7 01:50:27 10° WNW 01:53:32 63° SW 01:56:36 10° SE
STARLINK-1222 2.7 01:51:21 10° WNW 01:54:26 62° SW 01:57:29 10° SE
STARLINK-1214 2.7 01:52:16 10° WNW 01:55:20 60° SW 01:58:23 10° SE
STARLINK-1154 4.3 01:51:55 10° NW 01:56:01 57° NE 02:00:04 10° ESE
Cosmos 1570 Rocket 4.0 01:53:01 23° SSW 01:56:23 83° WNW 02:01:43 10° NNE
IDEFIX/ARIANE 42P 3.5 01:51:45 10° NNE 01:56:49 45° E 02:01:50 10° S
SJ 16-02 1.7 01:52:41 10° NNW 01:56:53 44° WSW 01:59:17 23° SSW
Cosmos 1953 Rocket 3.7 01:54:38 27° SSW 01:56:58 60° W 02:01:23 10° N
Cosmos 2285 Rocket 4.0 01:50:44 10° NNW 01:57:09 88° ENE 02:03:28 10° SSE
Cosmos 2208 Rocket 4.0 01:55:43 21° SSW 01:59:16 87° ESE 02:04:35 10° NNE
Cosmos 2369 3.7 01:55:55 23° SSW 01:59:31 76° WNW 02:05:11 10° NNE
STARLINK-1197 4.1 01:56:52 10° NW 02:00:59 62° NE 02:05:05 10° ESE
Cosmos 1937 Rocket 3.4 01:56:33 10° NNW 02:01:48 77° WSW 02:07:03 10° SSE
Cosmos 2360 4.2 01:58:24 20° SSW 02:02:27 86° ESE 02:08:11 10° NNE
Meteor 2-10 Rocket 4.3 01:58:54 10° NNW 02:03:33 32° W 02:06:01 21° SW
STARLINK-1198 4.0 02:01:49 10° NW 02:05:57 67° NE 02:10:04 10° ESE
STARLINK 1040 4.4 02:05:28 17° SSE 02:06:16 19° SE 02:08:14 10° E
Cosmos 1842 Rocket 4.4 02:03:22 10° N 02:07:47 53° E 02:12:08 10° SSE
STARLINK-1199 3.8 02:06:49 10° NW 02:10:58 74° NE 02:15:06 10° ESE
Iridium 2 3.7 02:09:08 10° N 02:12:54 79° E 02:16:39 10° S
USA 129 2.7 02:13:27 10° NNE 02:14:58 24° E 02:15:07 23° ESE
Cosmos 1814 Rocket 4.0 02:11:05 17° SSW 02:15:14 77° WNW 02:20:36 10° NNE
STARLINK-1210 3.7 02:11:46 10° NW 02:15:55 80° NE 02:20:04 10° SE
Cosmos 1980 Rocket 2.2 02:13:40 15° SSW 02:18:23 88° ESE 02:24:03 10° NNE
Cosmos 2219 4.2 02:14:24 10° NW 02:18:56 25° WSW 02:22:14 15° SSW
CZ-4B R/B 4.3 02:18:15 10° ESE 02:20:21 17° ENE 02:22:27 10° NNE
STARLINK-1219 3.6 02:16:45 10° NW 02:20:54 88° NNE 02:25:03 10° SE
STARLINK-43 3.9 02:19:29 18° SSW 02:21:55 46° SE 02:25:28 10° ENE
CZ-2C R/B 4.5 02:17:58 10° NE 02:22:19 27° E 02:26:41 10° SSE
Nadezhda 3 Rocket 4.3 02:16:07 10° N 02:22:24 75° E 02:28:43 10° SSE
ERS-2 2.3 02:19:08 11° S 02:22:35 50° W 02:26:10 10° NNW
STARLINK-1211 3.5 02:21:43 10° NW 02:25:52 85° SW 02:30:00 10° SE
IRIDIUM 103 4.3 02:23:09 10° S 02:28:22 89° E 02:33:37 10° N
STARLINK-1245 3.5 02:26:43 10° NW 02:30:51 78° SW 02:34:59 10° SE
Cosmos 2297 Rocket 3.3 02:30:05 10° NW 02:34:27 24° WSW 02:38:49 10° SSW
STARLINK-1233 3.5 02:31:41 10° NW 02:35:49 71° SW 02:39:55 10° SE
Cosmos 1076 Rocket 4.1 02:31:47 10° S 02:36:03 60° E 02:40:21 10° NNE
Cosmos 540 Rocket 4.0 02:32:22 14° SW 02:36:36 44° WNW 02:41:31 10° N
Cosmos 2082 4.0 02:33:05 10° NW 02:38:26 45° WSW 02:43:43 10° S
Landsat 5 3.6 02:34:56 10° S 02:39:22 70° WSW 02:43:55 10° NNW
STARLINK-1204 3.6 02:36:42 10° WNW 02:40:48 64° SW 02:44:53 10° SE
Cosmos 2278 4.1 02:36:08 12° SW 02:41:08 51° WNW 02:46:40 10° NNE
Meteor 1-28 Rocket 4.1 02:39:08 10° SSW 02:42:30 30° W 02:45:52 10° NNW
CZ-2D R/B 4.2 02:39:56 10° N 02:43:45 38° WNW 02:47:39 10° SW
USA 234 3.3 02:37:42 10° NE 02:44:17 84° SE 02:50:49 10° SW
STARLINK-1238 3.6 02:41:40 10° WNW 02:45:44 58° SW 02:49:47 10° SE
IRIDIUM 106 4.4 02:41:32 10° SSW 02:46:41 62° W 02:51:52 10° N
STARLINK-28 4.3 02:45:20 10° SSW 02:48:14 32° SE 02:51:08 10° ENE
Cosmos 841 Rocket 4.5 02:44:27 11° SW 02:48:59 33° WNW 02:53:43 10° N
Cosmos 2322 Rocket 3.6 02:43:58 10° S 02:49:04 37° ESE 02:54:11 10° NE
ATLAS CENTAUR R/B 3.6 02:45:16 10° WNW 02:49:18 35° SW 02:58:19 10° SSE
Cosmos 2263 Rocket 3.2 02:45:05 10° NNW 02:50:35 52° ENE 02:56:00 10° SE
STARLINK-1201 3.7 02:46:41 10° WNW 02:50:43 52° SW 02:54:43 10° SSE
Cosmos 372 Rocket 4.0 02:47:02 10° NNW 02:52:05 61° WSW 02:57:08 10° S
Cosmos 1892 2.7 02:48:20 10° S 02:52:11 90° NNW 02:56:01 10° N
COSMOS 2441 4.4 02:50:36 10° NNE 02:55:31 85° WNW 03:00:26 10° SSW
STARLINK-1206 3.8 02:51:41 10° WNW 02:55:41 47° SW 02:59:39 10° SSE
Cosmos 1869 3.3 02:52:21 10° NNW 02:56:12 59° W 02:59:59 10° S
In-Cosmos 22 Rocket 4.3 02:50:41 10° SSW 02:56:27 81° W 03:02:07 10° N
Cosmos 1400 Rocket 4.1 02:53:23 10° NW 02:56:40 23° W 02:59:58 10° SW
Cosmos 2221 2.7 02:53:23 10° NNW 02:57:36 51° W 03:01:48 10° S
PSLV R/B 3.6 02:53:27 10° NNE 02:57:42 82° ESE 03:01:53 10° S
CZ-4C R/B 4.0 02:55:17 10° SSW 02:58:27 30° W 03:01:40 10° NW
STARLINK-41 4.4 02:57:07 10° SSW 02:59:55 30° SE 03:02:43 10° ENE
STARLINK-1205 4.0 02:56:42 10° WNW 03:00:38 42° SW 03:04:33 10° SSE
PAYLOAD A 4.0 02:58:41 10° NNE 03:03:24 77° ESE 03:08:06 10° S
NOSS 2-1 (C) 4.1 03:00:12 10° S 03:03:28 39° ESE 03:06:42 10° NE
CZ-3 R/B 4.3 02:43:44 10° SW 03:04:53 28° S 03:12:36 10° ESE
STARLINK-1218 4.1 03:01:42 10° WNW 03:05:34 38° SW 03:09:25 10° SSE
